User: anonymous   Login
Location: Newark
(34.6283°N, 36.0776°E)
Time: 18:04:32
(UTC+00:00)
Language:

SR - Orbit

View from above orbital plane
View from above orbital plane
View from above satellite
View from above satellite

Ground track
Ground track

The orbit data is extracted from the following two-line orbital elements,

1    46U 60007B   20219.56482575 -.00000050 +00000-0 +13044-4 0  9991
2    46 066.6899 271.1230 0202339 094.0544 268.3718 14.49307086146375
Epoch (UTC): 06 August 2020 13:33:20
Eccentricity: 0.0202339
inclination: 66.6899°
perigee height: 584 km
apogee height: 871 km
right ascension of ascending node: 271.1230°
argument of perigee: 94.0544°
revolutions per day: 14.49307086
mean anomaly at epoch: 268.3718°
orbit number at epoch: 14637

The dashed part of the orbit path shows where the satellite is in the earth's shadow,  

DLR